Regional Weather Roundup
Issued by NWS Little Rock, AR

Home | Current Version | Previous Version | Text Only | Print | Product List | Glossary Off
Versions: 1 2 3 4 5 6 7 8 9 10 11 12 13 14 15 16 17 18 19 20 21 22 23 24 25 26 27

000
ASUS44 KLZK 281105
RWRLZK

WEATHER ROUNDUP FOR ARKANSAS
NATIONAL WEATHER SERVICE LITTLE ROCK AR
600 AM CDT THU JUL 28 2016

NOTE: "FAIR" INDICATES FEW OR NO CLOUDS BELOW 12,000 FEET WITH NO
SIGNIFICANT WEATHER AND/OR OBSTRUCTIONS TO VISIBILITY.

ARZ001-003-010-029-281200-
NORTHWEST ARKANSAS

CITY           SKY/WX    TMP DP  RH WIND       PRES   REMARKS
FAYETTEVILLE   CLOUDY    70  70 100 CALM      29.99R
FORT SMITH     PTCLDY    76  71  85 CALM      29.95R
HARRISON       CLEAR     73  71  93 W6        29.98R
BENTONVILLE    CLOUDY    72  68  88 CALM      29.99S VSB 3/4
ROGERS         CLEAR     71  70  96 SW3       29.99S FOG
SILOAM SPGS    PTCLDY    72  63  73 CALM      30.00R
HIGHFILL       FOG       71  71 100 CALM      29.98S VSB 1/4
SPRINGDALE     CLOUDY    70  70 100 CALM      30.01
$$

ARZ004-005-016-281200-
NORTH CENTRAL ARKANSAS

CITY           SKY/WX    TMP DP  RH WIND       PRES   REMARKS
BATESVILLE     MOCLDY    73  72  94 CALM      29.94R
FLIPPIN        CLOUDY    73  70  88 W5        29.93R
MTN HOME       FOG       71  71 100 CALM      29.95R VSB 1/2
$$

ARZ040-041-281200-
WEST CENTRAL ARKANSAS

CITY           SKY/WX    TMP DP  RH WIND       PRES   REMARKS
MENA             N/A    N/A N/A N/A MISG        N/A
MOUNT IDA      CLOUDY    73  72  96 CALM      29.94F
$$

ARZ009-017-025-026-028-281200-
NORTHEAST ARKANSAS

CITY           SKY/WX    TMP DP  RH WIND       PRES   REMARKS
CORNING          N/A     73  73 100 NW5       29.92S
JONESBORO      MOCLDY    76  74  93 W5        29.91S
NEWPORT        CLOUDY    76  76 100 CALM      29.93S
WALNUT RIDGE   CLOUDY    75  72  88 NW3       29.90S
BLYTHEVILLE    CLOUDY    76  75  97 NW3       29.91R
$$

ARZ022-023-033-042-044-281200-
CENTRAL ARKANSAS

CITY           SKY/WX    TMP DP  RH WIND       PRES   REMARKS
LITTLE ROCK    CLOUDY    78  73  84 SW7       29.94S
JACKSONVILLE   MOCLDY    75  75 100 S3        29.93R
SEARCY         CLOUDY    75  75 100 VRB3      29.94S
HOT SPRINGS    CLOUDY    75  72  90 CALM      29.95F
RUSSELLVILLE   CLOUDY    76  75  97 CALM      29.93S
$$

ARZ036-281200-
EAST ARKANSAS

CITY           SKY/WX    TMP DP  RH WIND       PRES   REMARKS
WEST MEMPHIS   LGT RAIN  74  73  97 W6        29.91S
$$

ARZ050-053-066-070-073-281200-
SOUTHWEST ARKANSAS

CITY           SKY/WX    TMP DP  RH WIND       PRES   REMARKS
ARKADELPHIA    CLOUDY    74  73  97 S5        29.97R FOG
CAMDEN         CLOUDY    75  72  88 CALM      29.97R
TEXARKANA      CLOUDY    74  72  93 SW3       29.97S
EL DORADO      CLOUDY    74  74 100 CALM      29.98R
DE QUEEN       CLOUDY    74  74 100 CALM      29.95S FOG
$$

ARZ056-057-069-281200-
SOUTHEAST ARKANSAS

CITY           SKY/WX    TMP DP  RH WIND       PRES   REMARKS
PINE BLUFF     CLOUDY    74  73  97 SW5       29.95
STUTTGART      CLOUDY    75  70  83 SW10      29.94S
MONTICELLO     CLOUDY    76  74  93 SW6       29.96R

$$






USA.gov is the U.S. government's official web portal to all federal, state and local government web resources and services.